This demonstration page uses our WeatherBlox Daily Observations layout. Learn more.

41.55636, -103.73856

Hourly Observations for July 31, 2016

Temp ( °F °C ) Dew Point ( °F °C ) Humidity (%) Winds ( mph kmh ) Pressure ( in mb ) Visibility ( mi km ) Precip ( " mm )
12:53 am 00:53 Clear 69 20.6 62 16.7 78 78 ESE 12 19 29.72 1006 10 16.0934 0 0
1:53 am 01:53 Clear 69 20.6 63 17.2 81 81 E 14 22 29.71 1006 10 16.0934 0 0
2:53 am 02:53 Clear 68 20 63 17.2 84 84 E 10 17 29.71 1006 10 16.0934 0 0
3:53 am 03:53 Clear 67 19.4 63 17.2 87 87 E 12 19 29.72 1006 10 16.0934 0 0
4:53 am 04:53 Clear 66 18.9 63 17.2 90 90 ESE 10 17 29.72 1006 10 16.0934 0 0
5:44 am 05:44 Partly Cloudy 64 18 63 17 94 94 ESE 9 15 29.74 1007 7 11.26538 0 0
5:53 am 05:53 Mostly Cloudy 66 18.9 64 17.8 93 93 ESE 12 19 29.72 1006 7 11.26538 0 0
6:20 am 06:20 Cloudy with Mist and Fog 66 19 64 18 94 94 ESE 13 20 29.71 1006 2.5 4.02335 0 0
6:35 am 06:35 Cloudy with Mist and Fog 67 19.4 65 18.3 93 93 ESE 14 22 29.71 1006 1.75 2.816345 0 0
6:53 am 06:53 Cloudy with Mist and Fog 67 19.4 65 18.3 93 93 SE 13 20 29.73 1007 2.5 4.02335 0 0
7:01 am 07:01 Cloudy with Mist and Fog 67 19.4 65 18.3 93 93 SE 10 17 29.71 1006 3 4.82802 0 0
7:53 am 07:53 Cloudy with Mist and Fog 68 20 65 18.3 90 90 ESE 10 17 29.75 1008 6 9.65604 0 0
8:34 am 08:34 Cloudy 70 21 64 18 83 83 SE 9 15 29.74 1007 8 12.87472 0 0
8:53 am 08:53 Cloudy 71 21.7 65 18.3 81 81 ESE 13 20 29.76 1008 9 14.48406 0 0
9:38 am 09:38 Partly Cloudy 75 24 64 18 69 69 SE 12 19 29.68 1005 10 16.0934 0 0
9:53 am 09:53 Sunny 76 24.4 65 18.3 69 69 ESE 12 19 29.76 1008 10 16.0934 0 0
10:53 am 10:53 Sunny 81 27.2 63 17.2 54 54 S 7 11 29.75 1008 10 16.0934 0 0
11:53 am 11:53 Sunny 86 30 60 15.6 42 42 SSE 7 11 29.74 1007 10 16.0934 0 0
12:53 pm 12:53 Sunny 91 32.8 57 13.9 32 32 VRB 3 6 29.72 1006 10 16.0934 0 0
1:53 pm 13:53 Sunny 92 33.3 60 15.6 34 34 E 6 9 29.7 1006 10 16.0934 0 0
2:53 pm 14:53 Sunny 94 34.4 59 15 31 31 NNE 5 7 29.69 1006 10 16.0934 0 0
3:53 pm 15:53 Sunny 92 33.3 54 12.2 28 28 VRB 5 7 29.69 1005 10 16.0934 0 0
4:53 pm 16:53 Sunny 94 34.4 60 15.6 32 32 E 10 17 29.68 1005 10 16.0934 0 0
5:53 pm 17:53 Sunny 91 32.8 65 18.3 42 42 ESE 8 13 29.69 1005 10 16.0934 0 0
6:53 pm 18:53 Sunny 87 30.6 62 16.7 43 43 SE 10 17 29.7 1006 10 16.0934 0 0
7:53 pm 19:53 Sunny 84 28.9 53 11.7 34 34 SW 12 19 29.75 1007 10 16.0934 0 0
8:53 pm 20:53 Mostly Clear 82 27.8 51 10.6 34 34 W 6 9 29.78 1008 10 16.0934 0 0
9:53 pm 21:53 Clear 79 26.1 54 12.2 42 42 S 10 17 29.79 1009 10 16.0934 0 0
10:53 pm 22:53 Mostly Clear 78 25.6 53 11.7 42 42 SSW 8 13 29.78 1008 10 16.0934 0 0
11:53 pm 23:53 Clear 77 25 53 11.7 43 43 SSE 9 15 29.77 1008 10 16.0934 0 0

Powered by AerisWeather